Погода в Золотой Горе

Россия / Амурская область     54°16′52″N   126°38′00″E
темп.,
°C
ветер,
м/с
пор.,
м/с
влажн.,
%
обл.,
%
осадки,
мм/ч
давл.,
гПа
погр.,
м
25 февраля, чт
чт2500:00−29с11960 0.0 102921
03:00−30с11980 0.0 103020
06:00−31с119945 0.0 102920
09:00−28с119666 0.0 103052
12:00−22с1282100 0.0 1028345
15:00−20ссз127997 0.0 1026506
18:00−24с1293100 0.0 102721
21:00−27сз119592 0.0 102820
26 февраля, пт
пт2600:00−28ссз119327 0.0 102920
03:00−28ссз119414 0.0 103121
06:00−29ссз12950 0.0 103221
09:00−26ссз11900 0.0 103468
12:00−20ссз12760 0.0 1033394
15:00−17с11732 0.0 1032480
18:00−22ююв119242 0.0 103220
21:00−24ююз229850 0.0 103427
27 февраля, сб
сб2700:00−24ю2298100 0.0 103329
03:00−24ю2297100 0.0 103247
06:00−23вюв1298100 0.0 103069
09:00−21вюв2498100 0.6 1027235
12:00−19вюв2694100 1.3 1023556
15:00−18в1395100 2.8 1018404
18:00−19ссз1199100 1.4 101737
21:00−22сз1199100 1.6 101720
28 февраля, вс
вс2800:00−24зсз129890 0.1 101651
03:00−25сз289592 0.1 1017278
06:00−26сз3129069 0.0 1019520
09:00−25сз5128570 0.0 1021671
12:00−21сз6127893 0.0 1022886
15:00−20ссз8137286 0.0 10231213
18:00−22ссз6147695 0.0 10261313
21:00−25ссз5158272 0.0 1029910
1 марта, пн
пн100:00−28сз314850 0.0 1030575
03:00−30сз313860 0.0 1032440
06:00−31сз26860 0.0 1032174
09:00−28ссз412780 0.0 1033622
12:00−24ссз59720 0.0 1031986
15:00−23сз6107222 0.0 10311281
18:00−26сз238797 0.0 103144
21:00−29з128551 0.0 103319